GFSSW_925_thetae_093.txt.gz
Theta_e
310 310 310 310 310 309 310 310 310 310 310 309 310 310 307 304 303 311 314 313 314 314 314 314 309 310 315 312 314 316 319 323 323 325 325 324 324 324 326 328 327 328 328 326 326
310 310 310 310 309 310 310 310 309 310 310 309 309 307 304 302 309 313 307 314 314 314 312 312 308 310 313 314 315 316 316 319 323 324 324 324 324 324 323 324 328 327 328 328 326
308 308 309 309 309 308 308 309 309 310 310 309 306 304 300 306 315 320 319 315 315 313 309 310 311 311 312 313 314 316 317 317 318 322 324 324 324 324 321 322 325 325 328 328 323
307 308 308 308 308 308 308 309 309 310 310 308 306 301 304 311 323 314 310 308 307 307 311 315 315 310 311 311 314 315 317 318 318 319 319 318 319 321 321 322 323 323 327 326 323
308 308 308 308 309 308 309 309 309 310 309 308 303 302 310 318 319 311 311 310 310 314 318 318 311 309 310 313 313 315 315 317 318 318 318 318 319 319 321 326 327 326 327 325 324
308 308 309 308 306 307 308 309 311 311 309 307 303 306 315 319 317 311 313 314 317 317 318 317 314 313 312 311 311 314 314 315 315 315 316 317 318 319 320 327 327 327 326 325 325
308 308 308 306 305 306 308 310 309 307 304 303 305 312 314 316 318 317 318 317 316 315 315 315 315 313 312 312 313 313 313 314 315 315 315 317 317 317 319 324 327 327 325 325 324
307 307 306 305 306 307 310 309 304 303 302 302 305 314 317 319 318 318 317 315 316 314 314 314 314 313 313 311 312 313 313 314 314 316 316 316 315 316 317 319 327 327 326 326 323
304 306 305 306 306 308 310 311 309 304 304 306 311 314 322 315 314 315 316 316 316 315 314 313 313 312 312 312 310 312 312 314 315 316 315 315 316 316 317 318 317 320 323 325 322
302 305 305 305 306 309 310 311 312 311 314 314 315 318 320 321 314 313 315 315 314 313 313 313 311 311 309 309 310 313 313 313 315 315 316 316 316 316 316 317 317 315 316 318 321
299 306 306 306 307 310 310 313 317 318 317 322 322 320 321 317 316 315 314 313 313 313 312 312 311 312 311 311 313 313 313 314 315 316 315 315 315 316 316 318 316 315 315 317 319
300 305 307 307 308 309 309 315 316 314 314 317 320 320 317 317 315 315 314 313 313 312 313 313 313 315 316 316 315 314 315 315 315 315 315 314 315 315 317 317 316 315 317 319 318
302 301 307 308 308 310 311 316 316 315 315 317 318 320 314 314 315 315 314 314 313 311 312 313 314 315 315 314 315 314 314 315 315 315 314 314 314 314 317 317 316 315 315 317 318
303 302 307 309 310 314 312 316 315 318 318 323 318 314 314 314 315 315 316 314 313 312 312 313 314 315 314 314 314 313 314 315 314 314 315 315 315 314 317 316 316 316 315 315 316
303 303 304 308 310 311 315 317 317 318 332 317 316 315 315 314 316 316 316 314 312 313 313 313 313 313 314 314 314 313 314 314 314 313 313 314 314 314 315 315 315 314 316 314 316
304 305 302 312 313 317 318 317 319 324 334 318 315 315 314 314 315 315 314 313 314 313 312 312 313 313 313 314 314 314 313 313 312 311 313 313 314 314 314 315 315 316 315 316 315
306 307 305 305 316 317 317 317 324 330 327 321 318 316 315 316 316 315 315 314 313 313 314 315 315 315 314 313 313 312 311 311 312 313 315 313 315 316 317 317 317 317 315 315 316
307 312 304 304 313 316 316 320 326 325 326 322 319 317 316 316 316 316 315 315 315 316 316 316 316 315 315 316 314 313 311 314 318 319 318 317 321 318 319 316 317 317 315 315 316
307 316 313 312 317 317 316 321 324 324 321 320 318 317 318 318 317 317 316 315 315 314 314 315 316 316 316 317 316 315 315 314 318 321 321 316 315 315 318 318 318 316 316 315 314
307 313 319 319 319 316 318 319 319 319 319 317 317 316 316 317 317 317 317 318 318 318 316 315 316 316 315 315 316 315 316 317 321 323 323 319 317 315 318 318 317 316 313 313 313
309 321 320 319 317 317 319 320 320 317 317 318 318 317 316 316 315 316 317 318 318 317 317 316 314 315 316 316 315 315 316 318 320 319 319 318 315 316 318 317 317 316 315 315 314
308 320 318 316 318 319 321 317 314 315 316 316 316 316 316 317 317 318 319 318 317 316 317 316 317 315 315 314 315 318 318 320 323 323 322 320 317 316 317 315 316 316 315 315 314
307 314 316 314 319 318 317 316 315 315 315 315 315 315 314 316 317 317 317 316 315 315 318 315 315 317 317 314 318 319 319 319 320 320 320 323 320 317 317 317 317 316 316 315 315
309 320 318 317 317 315 316 316 316 315 315 314 313 313 314 314 314 315 316 315 314 315 323 317 317 317 320 318 315 318 318 317 319 321 318 321 319 316 317 317 316 316 316 315 314
312 315 313 316 313 314 315 316 316 315 312 311 311 311 311 311 312 312 312 312 312 316 317 314 317 317 317 317 316 313 313 316 319 319 320 316 317 317 316 317 315 314 315 316 315
310 309 308 309 314 313 314 316 314 313 312 311 311 310 309 309 311 311 310 310 311 311 312 315 316 317 317 315 315 314 313 314 315 317 318 317 318 315 317 316 317 318 317 315 316
306 306 306 311 312 313 313 313 312 311 311 309 307 307 308 309 309 308 307 307 308 310 309 309 313 314 314 312 314 315 316 318 318 316 317 320 320 317 318 317 316 315 317 318 318

GFSSW_925_thetae_096.txt.gz
Theta_e
310 310 309 309 309 309 309 309 310 310 311 312 311 311 309 303 302 306 310 306 313 309 310 314 313 310 310 310 312 314 315 319 321 323 322 322 323 322 324 328 328 327 325 324 323
307 308 309 309 308 309 309 308 309 310 311 311 311 311 307 306 309 312 306 307 314 314 313 312 310 308 309 312 312 313 313 315 319 321 322 322 322 321 323 323 326 327 326 324 323
308 308 308 309 309 309 308 310 310 311 310 312 311 310 304 309 313 319 320 311 315 314 312 310 309 309 309 312 312 313 314 315 316 316 319 322 321 321 322 320 322 326 326 323 321
308 309 309 309 309 308 307 307 310 311 311 311 311 307 307 312 321 316 311 316 315 311 307 312 313 313 309 309 311 313 314 315 316 317 317 317 318 317 320 319 319 324 326 322 321
308 309 309 308 307 306 307 309 310 311 312 312 309 304 311 316 318 316 309 308 308 308 313 314 315 309 310 310 311 311 312 314 316 316 316 316 317 317 318 321 324 323 325 322 320
307 308 308 306 305 306 307 309 307 306 309 309 305 307 314 318 319 316 310 311 312 314 316 317 316 309 309 309 309 310 311 312 313 312 312 315 316 315 318 319 324 324 324 323 322
304 306 307 305 306 306 308 310 306 304 301 301 303 312 313 312 316 312 314 315 316 317 317 316 314 313 311 311 311 312 312 311 313 314 314 314 314 315 316 322 323 325 324 323 322
298 304 305 305 306 307 309 309 309 304 303 304 305 314 310 309 315 315 317 317 316 316 314 314 313 312 312 311 311 311 311 312 311 314 314 313 314 314 314 315 319 324 323 323 323
299 303 305 305 306 307 309 310 311 312 305 306 312 313 317 319 318 317 317 316 316 315 314 313 312 311 310 309 307 308 310 311 311 313 313 314 314 314 314 314 315 323 323 324 323
302 301 306 306 306 308 310 310 313 314 313 313 314 315 317 321 314 314 314 315 314 312 311 311 308 309 306 306 309 310 311 311 311 312 313 312 312 313 313 313 314 314 322 322 324
304 304 303 307 307 308 309 310 313 317 314 319 320 318 319 318 316 313 313 313 312 311 310 310 309 309 310 309 310 310 311 311 312 314 313 312 312 312 312 312 314 312 312 314 319
305 305 303 307 307 307 309 311 315 313 311 316 318 319 319 318 316 315 315 312 312 311 310 310 310 311 312 313 313 312 311 312 313 314 313 312 311 312 312 314 312 312 313 314 316
306 305 303 307 310 309 312 313 315 316 314 316 317 317 318 318 318 315 313 312 312 311 310 310 312 313 314 313 314 312 313 313 314 314 313 312 312 312 313 313 313 313 313 315 317
306 306 306 305 309 311 309 315 316 316 319 322 319 317 317 313 314 314 314 313 311 311 310 309 310 313 312 313 312 312 312 313 313 313 311 313 313 312 313 313 313 312 311 311 314
307 306 306 302 307 310 315 317 317 317 329 323 315 314 312 313 315 315 315 312 312 311 311 311 312 311 312 312 313 312 312 312 313 311 310 311 311 312 311 313 313 312 312 311 310
307 306 308 307 312 316 316 316 317 322 331 320 315 314 313 313 314 314 314 312 312 310 310 310 311 312 311 313 312 312 312 311 310 308 310 310 311 312 312 312 314 314 314 314 314
310 308 311 305 312 314 315 315 321 327 325 322 321 314 313 313 313 314 313 312 311 311 311 312 312 312 313 312 312 311 308 309 309 310 312 310 312 312 312 314 316 315 315 315 314
310 310 315 305 306 312 315 317 324 323 324 322 317 316 316 316 316 316 316 313 311 311 312 314 315 314 314 313 313 310 309 313 314 313 313 315 318 316 315 315 316 316 315 313 313
311 310 315 315 311 313 311 318 322 323 319 318 317 316 316 316 315 315 315 315 313 311 313 313 315 315 315 315 314 315 315 310 318 322 321 318 315 314 314 315 316 316 314 313 314
308 311 316 318 319 315 313 317 317 318 315 316 318 317 317 316 315 314 315 317 317 317 314 314 316 314 315 314 313 315 314 317 320 323 324 320 319 317 313 316 315 316 317 315 312
306 312 319 319 317 312 315 317 318 315 315 316 317 317 316 316 315 316 316 316 318 315 313 315 315 316 314 314 313 314 315 318 316 319 325 322 315 311 316 315 316 316 314 313 315
304 306 314 317 314 315 319 317 313 315 314 315 315 315 315 315 314 315 316 317 316 315 315 314 313 315 315 313 313 316 317 316 316 317 322 323 322 315 314 313 314 314 316 314 314
307 307 315 314 314 314 314 315 315 315 315 311 314 312 311 314 314 315 314 314 313 315 315 314 313 316 316 312 313 317 318 317 317 318 319 323 317 315 316 316 315 314 315 314 315
304 314 312 313 312 311 313 315 316 315 313 311 310 310 310 310 310 312 312 312 312 316 319 314 314 315 318 318 317 318 317 317 318 317 316 319 317 315 316 318 316 315 312 312 314
306 312 308 310 308 308 311 314 314 313 311 310 310 310 309 308 309 310 310 310 310 313 315 313 316 316 316 317 317 318 317 317 318 316 318 315 317 316 316 316 315 315 315 315 314
305 306 305 308 309 311 311 310 312 311 311 311 309 309 307 307 308 309 309 309 310 310 309 311 313 316 317 315 315 316 315 314 313 313 313 314 315 317 316 315 315 314 316 316 315
303 304 304 307 311 311 312 312 311 310 309 308 307 307 308 308 308 307 307 307 307 308 307 308 310 311 311 313 314 312 311 315 317 317 318 318 319 317 316 316 315 315 314 315 316

GFSSW_925_thetae_102.txt.gz
Theta_e
308 308 309 309 309 309 309 309 309 309 310 309 310 310 309 309 308 306 307 304 306 306 310 311 312 309 310 309 310 310 314 317 320 321 322 320 319 319 318 321 321 324 324 322 325
308 309 308 309 309 308 308 309 309 309 309 310 309 309 309 308 308 308 307 304 311 306 308 310 308 306 307 310 309 309 309 313 316 318 320 318 316 316 319 317 319 320 322 323 333
308 308 308 309 308 309 309 309 310 309 309 310 310 308 309 309 310 316 316 305 313 313 310 309 308 307 307 310 310 309 311 312 314 314 314 315 315 317 318 316 317 318 322 322 326
307 308 309 308 309 310 310 310 310 310 310 310 309 308 310 311 318 316 312 307 308 313 311 307 309 308 307 308 309 313 311 313 314 314 314 315 315 315 315 315 315 315 319 320 323
305 307 307 308 307 308 309 309 309 310 308 308 308 308 310 311 313 317 312 310 315 313 309 308 310 307 308 307 307 310 310 310 311 310 311 312 313 314 313 313 313 313 316 319 323
304 304 304 306 306 307 307 308 309 307 309 306 307 310 312 309 315 318 310 313 309 308 310 313 312 307 308 307 308 308 309 309 309 309 310 312 311 312 314 314 313 313 313 317 318
305 304 304 303 305 305 306 308 308 309 305 303 306 311 311 305 311 316 308 309 309 313 313 315 315 312 309 310 308 310 310 309 310 311 311 310 311 311 312 313 314 315 315 317 316
306 305 304 302 305 306 307 308 308 309 307 305 309 312 307 306 315 313 310 311 313 313 314 316 314 309 310 308 307 310 307 309 309 311 311 311 312 312 312 312 313 313 314 319 320
306 306 305 304 304 306 306 307 309 309 309 307 311 311 314 313 318 317 313 314 315 314 314 314 309 306 306 306 306 305 309 309 309 309 310 311 311 311 311 311 311 310 311 312 315
309 309 307 305 302 306 307 309 312 312 312 312 312 313 313 317 317 317 317 315 315 312 309 308 304 306 303 304 304 308 309 309 309 310 310 309 309 309 309 309 309 309 309 310 312
310 310 309 305 304 305 308 309 309 310 314 312 315 312 314 316 317 312 314 314 313 309 308 307 306 307 307 306 307 309 308 309 309 308 310 309 309 309 309 308 308 308 309 308 308
310 310 310 307 306 304 308 308 312 312 313 313 313 313 314 316 316 317 312 310 309 308 308 307 308 307 308 308 308 308 309 309 309 309 308 309 309 308 309 309 309 310 309 309 308
308 309 311 309 306 306 310 312 312 313 313 314 313 314 314 315 316 317 311 310 310 309 308 307 309 309 310 310 311 310 310 311 311 311 310 310 309 310 310 310 309 310 309 308 309
308 308 309 310 306 309 309 311 313 312 315 318 316 316 315 315 316 317 313 311 310 309 307 307 308 309 308 310 309 310 309 310 311 311 309 310 311 309 309 309 309 309 307 307 307
307 307 308 309 307 307 312 313 314 314 324 321 316 315 314 315 314 313 312 311 310 310 309 310 310 309 310 309 309 309 309 309 310 309 308 309 308 307 309 309 308 307 307 307 307
306 307 308 309 308 307 312 314 315 320 325 323 312 314 316 314 313 312 312 311 311 310 308 308 309 309 308 310 309 311 311 307 305 305 308 308 308 309 308 309 308 309 308 308 308
307 308 309 308 306 311 311 313 316 324 319 319 316 314 312 312 313 313 313 311 311 311 309 310 310 309 310 310 310 309 308 310 311 310 313 309 308 310 308 308 308 309 309 309 309
308 310 310 308 307 307 313 315 322 315 316 316 316 316 316 314 314 315 314 312 311 309 309 310 312 310 311 310 311 307 307 310 316 313 314 313 310 309 308 310 311 311 310 309 308
308 309 307 313 312 309 310 317 311 318 315 315 316 316 315 315 315 314 314 314 313 309 311 310 312 312 312 311 309 311 309 308 310 315 316 314 313 314 313 312 312 314 311 311 310
307 304 309 315 309 311 307 309 314 314 314 315 316 316 317 315 315 315 314 315 316 314 312 313 314 313 313 313 312 313 313 316 315 320 318 315 318 316 314 313 315 314 313 310 310
307 305 310 311 313 310 313 311 316 314 313 314 316 315 313 313 313 314 315 313 313 313 312 312 312 314 313 313 314 313 315 317 317 319 324 324 317 310 311 313 314 313 312 312 311
305 309 310 311 314 308 315 314 314 314 312 311 312 312 311 312 311 314 315 314 313 316 316 312 314 317 316 312 314 315 316 319 321 322 320 315 318 313 311 313 314 312 312 312 312
304 304 310 310 313 310 309 313 312 312 311 311 313 311 310 311 311 311 313 312 310 315 317 313 314 320 318 314 314 317 318 317 316 315 317 319 317 312 312 312 312 312 313 313 315
303 309 303 304 307 309 310 312 312 311 312 312 312 311 311 310 309 312 310 309 309 310 313 313 314 316 320 317 315 317 317 317 317 318 314 316 316 314 314 313 312 311 312 313 314
300 304 303 304 306 310 311 312 313 314 311 310 312 312 311 311 309 309 309 308 308 309 310 313 315 315 316 315 313 313 315 316 317 316 317 314 314 313 312 313 312 311 312 315 314
303 303 301 303 303 308 311 311 314 314 313 312 311 311 310 310 308 308 307 307 307 308 311 309 310 312 313 312 313 316 313 312 314 314 314 314 315 310 309 312 314 311 312 313 312
302 303 304 307 307 309 310 311 313 311 311 311 310 310 310 309 308 307 307 308 306 307 307 308 309 311 311 310 311 312 311 310 311 313 313 315 313 310 312 313 313 311 312 311 309

GFSSW_925_thetae_105.txt.gz
Theta_e
309 309 309 309 309 309 309 309 309 309 309 309 310 310 310 309 308 307 307 303 306 304 311 311 312 309 310 312 313 315 321 323 324 324 324 321 321 321 320 322 321 323 326 326 329
308 309 309 309 309 308 308 309 310 309 309 310 310 310 310 309 308 309 306 304 305 306 309 311 311 310 313 312 313 317 318 320 320 321 323 321 318 318 319 320 321 321 321 325 335
308 308 308 308 309 309 309 310 310 310 310 310 310 310 310 309 312 318 315 305 308 307 311 309 307 310 313 313 313 314 317 315 316 319 318 317 317 318 318 320 320 320 320 320 329
307 308 308 307 308 309 310 310 310 309 310 308 309 309 310 310 319 315 313 308 313 311 309 309 310 311 312 315 313 316 315 316 316 316 317 317 317 317 317 318 318 319 319 319 320
308 310 309 307 307 307 308 308 309 310 309 309 308 308 309 311 312 317 314 305 309 313 311 310 310 311 313 312 312 315 314 314 315 315 314 314 314 315 316 317 317 317 317 319 320
309 310 309 307 306 306 306 307 309 310 309 309 308 310 312 313 314 316 308 314 313 311 309 311 311 311 311 311 312 312 312 313 313 314 313 314 315 314 316 317 317 317 318 318 320
309 307 308 307 305 305 306 307 308 309 310 307 308 311 311 309 308 317 313 310 310 309 312 315 315 313 312 312 311 312 313 313 314 314 314 314 315 315 316 315 317 318 318 319 321
310 309 308 308 306 304 305 306 307 307 310 308 310 312 309 305 313 315 309 310 310 312 314 314 315 311 312 311 311 313 312 314 314 313 314 314 315 316 315 315 316 316 316 317 318
308 309 310 307 308 304 305 306 310 309 311 312 311 312 314 313 316 315 310 314 313 313 314 313 311 310 310 312 313 312 315 314 314 313 313 314 314 315 314 314 316 316 316 316 317
308 308 308 309 306 305 304 312 311 313 312 312 312 315 314 317 317 317 314 314 316 312 311 311 311 312 311 313 313 312 312 312 313 313 313 314 315 315 315 314 316 315 316 317 317
307 307 307 308 309 305 305 310 313 313 315 317 316 312 314 316 316 314 315 315 314 312 313 311 313 313 313 312 310 311 313 314 314 314 313 316 316 316 316 315 316 316 317 317 318
306 306 307 308 309 306 306 311 314 314 317 314 315 314 314 315 315 316 313 314 314 313 311 312 312 312 310 311 311 312 313 314 314 314 313 315 316 316 316 315 316 316 317 317 318
306 306 307 308 308 307 308 312 312 312 317 316 315 316 316 315 315 316 312 312 312 312 312 312 312 311 311 312 313 313 314 315 314 314 313 314 315 315 315 314 315 315 316 316 317
305 306 307 308 308 306 309 311 312 312 321 320 317 316 316 316 316 316 312 313 312 313 311 312 312 311 312 312 312 314 313 314 314 314 315 313 315 315 315 315 315 316 316 317 316
305 305 306 307 309 307 311 311 313 314 326 321 317 315 316 316 314 317 313 313 314 312 312 313 312 311 312 313 312 313 312 313 313 314 314 315 315 315 314 315 315 316 316 316 317
304 305 305 308 308 309 309 312 314 322 325 323 315 316 316 316 315 313 315 313 314 314 312 313 311 312 313 312 312 313 313 313 311 313 316 316 316 315 315 316 316 316 315 315 315
304 306 306 307 309 308 309 316 320 323 319 319 317 315 315 316 316 315 314 315 315 315 315 314 314 313 312 313 314 313 314 316 317 317 318 317 317 316 316 316 316 315 316 317 317
305 308 307 309 307 308 311 320 319 315 317 316 315 317 318 315 314 315 314 315 314 314 315 316 317 314 313 314 315 315 315 317 319 319 318 316 317 317 315 315 314 316 317 317 317
308 307 309 310 312 308 317 320 317 318 315 315 315 318 316 316 316 317 316 316 315 312 315 314 315 313 314 315 314 316 315 315 316 317 318 317 317 317 317 317 317 318 318 318 318
306 305 309 310 311 310 313 312 314 315 314 314 316 316 319 318 320 320 319 318 318 316 314 316 318 316 315 314 313 314 315 319 319 321 323 320 319 319 318 317 317 318 317 315 317
306 310 308 311 312 317 320 315 316 314 313 315 316 315 314 314 315 316 316 313 313 314 315 315 315 317 316 317 317 316 317 318 319 321 324 324 321 319 317 317 318 317 316 315 316
306 312 309 311 318 312 317 312 312 313 313 312 312 313 315 315 316 316 315 315 311 312 314 315 317 319 318 317 315 316 317 319 326 327 324 325 323 317 317 317 317 316 315 315 317
308 307 308 309 317 314 313 313 312 313 313 313 315 314 313 315 317 315 314 313 312 313 315 315 317 321 319 317 316 318 318 319 320 320 324 325 321 315 316 315 315 316 315 315 317
308 312 309 308 309 313 314 316 317 314 313 312 314 313 313 314 313 315 314 313 311 311 312 314 316 318 319 319 318 321 318 317 320 324 320 319 319 316 314 314 315 316 316 316 317
305 307 305 310 310 308 311 312 312 313 313 312 314 315 313 316 314 316 313 311 309 309 310 313 318 315 315 314 313 313 313 313 313 315 319 316 315 313 313 315 317 316 315 315 315
308 308 306 308 307 310 310 311 312 313 313 314 314 313 312 314 312 315 312 310 311 309 311 313 315 314 313 310 310 311 311 311 311 312 315 314 313 313 314 314 315 315 313 312 314
302 303 306 307 307 309 311 311 311 310 309 310 312 312 312 312 310 308 307 309 310 310 310 311 313 313 312 310 311 313 312 312 312 312 314 316 315 315 316 316 315 314 312 311 311